This is the latest recevied weather packets stored in our database for station/object K1ZK-13. If no packets are shown the sender has not sent any weather packets the latest 10 day(s).
| Time | Temp. | Humidity | Pressure | Rain* | Wind** | Luminosity | Snow |
|---|---|---|---|---|---|---|---|
| 1788133420 | 66° F | 95% | 763.3 mmHg | 0.17 in | - | 1 W/m² | - |
| 1788133116 | 66° F | 95% | 763.2 mmHg | 0.17 in | - | 1 W/m² | - |
| 1788114894 | 66° F | 94% | 763.8 mmHg | 0.07 in | - | 125 W/m² | - |
| 1788114589 | 66° F | 94% | 763.8 mmHg | 0.07 in | - | 125 W/m² | - |
| 1788111244 | 68° F | 87% | 764.2 mmHg | 0 in | - | 92 W/m² | - |
| 1788110940 | 68° F | 87% | 764.1 mmHg | 0 in | - | 92 W/m² | - |
| 1788110636 | 67° F | 87% | 764.2 mmHg | 0 in | - | 94 W/m² | - |
| 1788110331 | 68° F | 86% | 764.1 mmHg | 0 in | - | 84 W/m² | - |
| 1788110027 | 68° F | 86% | 764.1 mmHg | 0 in | - | 108 W/m² | - |
| 1788109722 | 68° F | 85% | 764.2 mmHg | 0 in | - | 115 W/m² | - |
| 1788109421 | 68° F | 85% | 764.2 mmHg | 0 in | - | 125 W/m² | - |
| 1788109114 | 69° F | 85% | 764.2 mmHg | 0 in | - | 193 W/m² | - |
| 1788108810 | 69° F | 85% | 764.1 mmHg | 0 in | - | 193 W/m² | - |
| 1788108506 | 68° F | 85% | 764.2 mmHg | 0 in | - | 225 W/m² | - |
| 1788107899 | 68° F | 85% | 764.2 mmHg | 0 in | - | 153 W/m² | - |
| 1788107595 | 68° F | 85% | 764 mmHg | 0 in | - | 153 W/m² | - |
| 1788106991 | 68° F | 85% | 764.2 mmHg | 0 in | - | 187 W/m² | - |
| 1788106686 | 68° F | 85% | 764.2 mmHg | 0 in | - | 187 W/m² | - |
| 1788106081 | 66° F | 87% | 764.2 mmHg | 0 in | - | 131 W/m² | - |
| 1788105781 | 66° F | 87% | 764.2 mmHg | 0 in | - | 131 W/m² | - |
| 1788105173 | 65° F | 86% | 764.3 mmHg | 0 in | - | 73 W/m² | - |
| 1788104873 | 65° F | 86% | 764.3 mmHg | 0 in | - | 73 W/m² | - |
| 1788104569 | 65° F | 86% | 764.5 mmHg | 0 in | - | 78 W/m² | - |
| 1788104266 | 65° F | 86% | 764.3 mmHg | 0 in | - | 69 W/m² | - |
| 1788103961 | 65° F | 86% | 764.2 mmHg | 0 in | - | 103 W/m² | - |
* Rain latest hour (hover to see other rain measurements)
** Current wind speed in m/s (hover to see current wind gust speed)